Temp
56 56 56 57 57 56 57 56 55 58 57 52 45 45 45 45 46 47 46 47 47 47 45 43 40 42 43 46 46 43 43 43 40 41 41 42 41 40 43 37 32 31 32 34
56 56 56 56 56 56 58 57 55 58 57 49 47 44 44 45 45 45 45 45 47 47 45 43 44 43 45 46 45 45 45 42 39 38 39 40 39 41 41 39 37 30 33 37
56 56 56 56 56 56 58 57 51 57 53 49 51 47 45 44 46 46 46 46 47 45 44 45 44 43 43 44 45 45 46 42 43 44 43 43 36 38 40 42 33 37 33 36
56 56 55 55 55 55 59 52 48 46 47 51 49 48 47 45 44 45 47 44 46 46 42 43 42 43 41 43 45 44 45 40 40 42 42 42 42 42 39 34 40 35 38 34
56 55 55 55 55 54 53 54 53 48 48 46 48 46 47 46 46 46 44 43 47 46 46 48 45 44 43 44 41 42 41 39 37 38 40 39 35 40 41 42 41 41 43 42
56 55 55 55 54 55 53 48 49 52 43 45 48 49 48 47 47 48 48 48 46 43 48 51 51 52 49 48 44 41 40 39 37 34 37 38 36 44 41 43 44 43 39 48
56 55 55 55 54 52 53 48 50 53 48 46 48 46 46 46 47 46 47 47 47 49 50 50 49 48 45 46 44 46 39 39 39 34 37 30 49 46 47 45 47 46 47 50
55 55 55 55 54 52 52 48 51 50 47 47 46 45 45 47 48 47 48 48 50 52 49 47 43 42 40 39 38 40 42 42 37 33 32 41 47 44 40 39 46 50 47 51
54 54 55 55 54 53 52 49 48 50 47 47 46 45 45 46 46 46 45 46 49 49 47 44 36 36 42 36 32 37 38 39 38 31 27 29 46 45 47 45 39 55 50 51
54 54 54 54 54 53 53 50 48 50 45 48 46 46 45 46 44 44 43 43 43 45 42 38 37 38 42 37 35 27 30 33 31 33 31 38 46 48 47 38 47 48 50 51
53 53 53 54 54 53 53 51 49 50 46 47 46 48 46 45 45 43 42 43 40 40 37 38 39 37 41 37 41 36 34 31 29 33 30 28 51 44 42 52 50 50 50 51
52 52 53 53 53 54 52 48 49 49 46 48 49 53 54 54 53 48 43 43 41 44 40 39 40 37 37 39 36 36 33 43 42 40 40 47 47 52 54 50 51 51 52 53
51 51 51 51 52 52 51 49 48 45 42 44 43 44 52 49 50 56 43 43 49 43 48 44 42 35 40 36 40 42 41 45 39 40 48 45 49 50 50 50 51 53 52 53
51 51 51 51 51 51 50 46 46 45 42 36 42 48 46 50 48 48 51 50 45 44 44 41 40 38 45 40 43 42 47 44 43 42 48 46 51 53 51 52 50 49 51 51
50 50 50 50 50 50 49 47 47 46 41 36 38 44 50 51 48 45 45 45 44 43 39 36 36 42 41 42 41 39 47 43 40 39 50 49 51 56 52 48 47 48 48 47
50 50 50 50 49 49 46 40 44 47 44 37 32 43 43 43 43 42 41 42 43 42 38 39 43 47 40 33 35 47 50 53 52 47 53 52 52 46 43 44 42 40 40 38
49 49 49 49 49 47 41 39 42 47 45 36 33 35 42 41 41 40 40 42 41 40 39 36 38 39 40 34 32 44 47 49 49 50 45 43 47 39 35 35 34 34 34 35
49 49 49 49 49 47 41 45 47 46 41 37 31 33 36 39 36 35 40 37 37 37 37 38 36 41 39 31 40 41 38 42 37 34 34 33 33 33 33 35 37 36 36 38
48 48 48 44 42 38 41 47 47 45 39 32 31 29 28 38 35 36 36 37 31 40 34 37 39 37 30 28 29 30 31 30 30 32 33 33 33 33 35 36 36 36 38 39
47 43 39 35 39 45 45 41 36 35 36 34 29 33 29 35 34 34 32 34 31 28 34 36 32 31 30 31 32 33 32 32 33 31 32 36 37 38 38 39 40 39 39 39
39 34 33 40 43 39 37 31 29 31 28 31 32 32 29 36 30 30 34 30 31 24 29 28 28 23 29 32 33 34 34 35 35 36 36 37 38 37 37 38 39 39 39 39
39 38 41 39 34 31 27 26 28 28 26 31 30 31 32 34 35 30 31 28 29 23 31 27 21 28 32 33 33 33 36 36 36 37 37 38 38 39 39 38 38 38 39 40
39 36 31 29 28 20 19 16 21 23 29 30 31 29 32 32 32 27 25 22 24 31 24 24 28 33 34 35 36 37 39 38 37 37 39 39 39 39 38 38 40 39 38 39
28 23 15 20 19 23 24 25 26 31 29 28 29 28 28 29 24 25 19 26 23 20 17 22 29 32 35 37 37 36 36 37 36 36 37 37 37 37 38 38 39 37 35 37
24 23 14 17 26 26 28 27 28 30 30 27 27 27 27 25 23 23 22 18 17 21 22 28 33 35 35 35 36 35 35 34 33 34 33 33 33 33 33 35 36 35 34 34
26 24 21 24 23 24 22 22 23 29 30 28 28 24 21 19 21 19 18 15 16 25 26 31 32 30 32 33 35 36 36 36 35 36 35 35 34 33 33 34 33 32 31 30
21 21 27 26 23 23 27 27 29 31 29 24 22 19 19 19 16 15 19 17 26 31 33 32 31 30 31 31 30 31 31 32 33 33 33 33 34 33 30 29 32 33 32 30
MSLP
1022.99 1022.38 1021.74 1021.00 1020.35 1019.74 1019.66 1019.71 1019.57 1019.81 1019.79 1019.88 1021.11 1021.54 1022.23 1022.78 1023.05 1023.18 1022.88 1022.44 1021.99 1021.80 1021.96 1022.05 1022.55 1023.10 1023.64 1024.06 1023.97 1023.73 1023.87 1023.61 1023.82 1023.94 1024.89 1025.10 1025.04 1024.61 1024.20 1023.77 1023.82 1023.37 1022.15 1018.57
1023.40 1022.72 1022.00 1021.32 1020.62 1020.14 1019.89 1019.89 1020.00 1019.82 1019.71 1020.53 1021.34 1022.07 1022.20 1022.57 1022.70 1022.69 1022.66 1022.40 1022.27 1022.15 1021.96 1022.27 1022.47 1022.93 1023.68 1023.95 1023.88 1023.76 1023.68 1023.35 1023.12 1023.45 1024.48 1024.64 1024.22 1023.82 1023.68 1023.68 1023.47 1022.61 1021.65 1018.23
1023.70 1023.12 1022.42 1021.67 1020.99 1020.44 1020.17 1020.21 1020.51 1020.34 1020.64 1021.64 1021.17 1021.63 1022.04 1022.27 1022.46 1022.33 1022.42 1022.51 1022.50 1022.34 1022.09 1022.18 1022.31 1022.79 1023.67 1024.03 1023.98 1024.03 1023.93 1023.36 1022.49 1022.00 1022.10 1022.44 1022.95 1022.80 1022.89 1022.65 1022.43 1020.91 1019.35 1017.48
1023.94 1023.32 1022.57 1021.83 1021.09 1020.60 1020.34 1020.96 1021.95 1022.30 1021.65 1021.67 1021.86 1021.80 1021.95 1022.22 1022.51 1022.75 1022.65 1022.37 1022.01 1022.03 1022.21 1022.32 1022.26 1022.71 1023.55 1024.20 1024.43 1024.58 1024.06 1023.06 1022.48 1021.70 1021.74 1021.98 1021.76 1021.67 1021.93 1021.54 1020.26 1019.76 1016.88 1016.88
1024.13 1023.56 1022.87 1022.10 1021.22 1020.71 1021.15 1022.24 1022.30 1022.60 1022.18 1021.99 1021.62 1021.73 1021.91 1021.99 1022.04 1022.29 1022.39 1022.32 1021.73 1021.80 1021.51 1021.29 1021.57 1022.26 1023.15 1023.33 1024.56 1024.53 1024.48 1023.40 1022.93 1021.50 1020.99 1021.03 1020.60 1019.96 1020.04 1019.46 1018.90 1018.23 1017.02 1015.67
1024.38 1024.00 1023.49 1022.82 1021.88 1020.95 1021.98 1023.22 1023.08 1022.49 1022.57 1022.17 1021.82 1021.58 1021.58 1021.67 1021.94 1021.85 1021.88 1022.20 1022.21 1022.02 1021.45 1021.37 1021.48 1021.68 1021.95 1022.34 1022.93 1023.66 1024.02 1023.54 1023.10 1021.48 1021.32 1020.71 1019.13 1016.34 1016.67 1016.72 1016.50 1016.30 1016.27 1013.29
1024.48 1024.22 1023.92 1023.51 1023.11 1022.71 1022.92 1023.75 1023.36 1022.50 1022.21 1022.20 1021.80 1021.82 1021.94 1021.65 1021.71 1021.84 1022.06 1022.23 1022.20 1022.22 1022.13 1021.88 1021.86 1021.83 1022.06 1022.41 1022.77 1022.91 1023.19 1023.17 1022.77 1021.34 1020.76 1018.79 1015.19 1015.30 1015.07 1014.94 1014.55 1014.87 1013.94 1012.88
1024.74 1024.38 1024.08 1023.85 1023.61 1023.57 1023.57 1024.04 1023.54 1023.08 1022.51 1022.19 1021.77 1021.75 1021.71 1021.65 1021.63 1021.81 1021.71 1021.79 1021.98 1022.03 1021.97 1021.89 1021.67 1021.64 1021.81 1021.92 1022.76 1023.21 1023.05 1022.60 1022.26 1021.57 1019.91 1016.64 1015.20 1014.75 1015.08 1014.69 1012.84 1012.68 1012.47 1012.26
1024.80 1024.60 1024.31 1024.03 1023.80 1023.70 1023.76 1024.34 1024.42 1023.60 1022.95 1022.27 1022.55 1022.08 1021.68 1021.62 1021.67 1021.75 1022.05 1022.62 1022.60 1022.44 1022.07 1021.71 1021.17 1020.61 1020.30 1021.31 1022.40 1023.04 1023.12 1023.02 1022.03 1021.36 1019.67 1016.21 1014.14 1014.37 1014.61 1014.90 1012.22 1010.75 1011.59 1011.51
1024.74 1024.74 1024.56 1024.30 1024.03 1023.91 1023.86 1024.23 1024.39 1024.09 1023.40 1022.50 1022.50 1022.34 1022.23 1022.12 1021.83 1021.80 1022.23 1022.54 1022.74 1022.63 1022.01 1021.51 1020.85 1019.84 1019.81 1020.01 1020.59 1022.16 1022.41 1022.07 1020.72 1020.21 1018.34 1014.99 1014.47 1014.54 1014.77 1014.24 1011.56 1011.40 1011.64 1011.94
1024.73 1024.66 1024.58 1024.33 1024.14 1024.13 1024.07 1024.19 1024.39 1024.21 1023.72 1022.97 1022.62 1022.33 1022.03 1022.11 1022.10 1021.98 1022.63 1022.79 1022.77 1022.59 1021.92 1021.09 1020.18 1019.52 1018.93 1018.97 1018.67 1019.23 1019.26 1019.74 1019.62 1019.09 1017.57 1014.92 1013.65 1014.64 1014.16 1012.38 1012.24 1012.24 1012.26 1012.28
1025.06 1024.85 1024.69 1024.53 1024.30 1024.02 1024.05 1024.20 1024.26 1024.42 1024.19 1023.11 1022.71 1022.01 1021.84 1021.60 1021.52 1021.74 1022.04 1021.92 1021.86 1021.68 1021.36 1020.72 1019.98 1019.24 1019.02 1018.33 1017.57 1018.40 1018.09 1016.62 1016.38 1016.46 1014.38 1014.02 1013.91 1012.81 1012.70 1012.73 1012.44 1012.43 1012.42 1012.50
1025.21 1025.00 1024.97 1024.86 1024.58 1024.35 1024.06 1023.88 1024.05 1024.36 1024.01 1022.90 1022.58 1021.58 1021.18 1021.27 1021.26 1021.10 1021.52 1021.56 1021.15 1021.10 1020.52 1020.32 1019.90 1019.19 1018.56 1017.56 1016.21 1016.45 1016.41 1016.49 1016.15 1015.57 1013.01 1013.47 1013.16 1013.10 1012.93 1012.83 1012.42 1012.27 1012.41 1012.40
1025.54 1025.31 1025.08 1024.89 1024.58 1024.51 1024.39 1024.10 1023.95 1023.97 1023.83 1022.84 1021.50 1021.29 1021.29 1021.02 1021.22 1021.26 1020.75 1020.50 1021.29 1021.24 1021.12 1020.39 1019.50 1018.68 1017.71 1016.86 1016.12 1015.18 1015.58 1015.75 1014.95 1013.52 1013.18 1013.35 1012.40 1012.36 1012.27 1011.99 1012.15 1012.31 1012.19 1012.32
1025.84 1025.51 1025.26 1025.05 1024.80 1024.57 1024.33 1024.11 1023.90 1023.77 1024.14 1022.86 1021.74 1021.29 1020.56 1020.18 1020.52 1020.66 1020.93 1020.90 1020.97 1020.93 1020.76 1020.01 1018.86 1018.16 1018.11 1016.88 1016.38 1013.66 1014.88 1014.27 1014.09 1012.76 1012.71 1012.54 1011.91 1012.03 1012.27 1012.34 1012.36 1012.48 1012.61 1012.74
1025.84 1025.72 1025.22 1024.92 1024.89 1024.69 1024.34 1023.96 1024.37 1023.98 1024.14 1023.48 1022.24 1021.08 1020.51 1020.53 1020.58 1020.52 1020.49 1020.63 1020.74 1020.59 1019.94 1018.83 1017.88 1017.53 1017.94 1016.64 1014.60 1013.55 1013.78 1013.61 1013.11 1012.50 1012.45 1012.53 1012.44 1013.06 1013.65 1013.64 1013.84 1013.67 1013.82 1014.12
1025.73 1025.32 1025.23 1024.91 1024.68 1024.75 1024.66 1024.36 1024.06 1023.97 1024.18 1023.75 1022.54 1021.24 1020.81 1020.82 1020.72 1020.71 1020.62 1020.53 1020.26 1020.16 1019.34 1018.39 1018.00 1017.74 1017.93 1016.25 1014.88 1014.46 1014.24 1014.01 1013.72 1013.67 1013.58 1013.25 1013.40 1014.29 1015.07 1015.22 1015.20 1015.15 1015.20 1015.25
1025.57 1025.25 1024.69 1024.38 1024.28 1024.30 1024.26 1024.11 1024.02 1023.98 1024.10 1023.98 1023.02 1021.38 1021.23 1021.30 1021.17 1020.92 1020.79 1020.62 1020.45 1019.78 1019.04 1018.33 1017.77 1017.33 1017.18 1016.71 1016.04 1015.59 1015.63 1015.11 1015.54 1016.13 1016.03 1016.20 1016.26 1016.56 1016.11 1016.18 1015.94 1015.92 1015.47 1015.30
1025.20 1024.93 1024.46 1024.32 1024.22 1024.31 1024.04 1023.86 1023.92 1023.94 1024.44 1023.59 1022.92 1022.25 1021.61 1021.49 1021.43 1021.25 1020.85 1020.47 1020.06 1019.18 1018.61 1017.72 1017.59 1017.24 1017.97 1018.91 1018.85 1018.60 1017.78 1017.95 1018.27 1017.74 1017.48 1017.33 1017.10 1017.23 1017.06 1016.70 1016.42 1016.20 1015.58 1015.10
1025.17 1024.94 1024.65 1024.34 1024.47 1024.29 1024.09 1023.60 1023.74 1023.79 1023.78 1023.65 1023.17 1022.98 1022.38 1022.06 1021.57 1021.21 1021.31 1020.48 1019.87 1018.98 1018.42 1018.03 1017.34 1017.90 1019.71 1019.75 1019.96 1019.82 1019.51 1019.19 1018.89 1018.51 1017.85 1017.40 1016.88 1016.56 1016.24 1015.97 1015.84 1015.94 1015.36 1014.93
1025.53 1025.29 1025.08 1024.92 1024.61 1024.29 1023.85 1023.78 1023.63 1023.52 1023.49 1023.41 1022.97 1022.84 1022.44 1022.32 1022.01 1021.48 1021.14 1020.61 1019.88 1019.14 1019.05 1018.95 1018.01 1019.20 1019.70 1019.50 1019.54 1019.18 1018.97 1018.82 1018.38 1018.04 1017.71 1016.95 1016.47 1016.42 1016.06 1015.79 1015.67 1015.52 1014.78 1014.50
1025.85 1025.89 1025.41 1025.15 1024.98 1024.67 1024.40 1024.00 1023.95 1023.56 1023.54 1023.27 1023.01 1023.12 1022.68 1022.37 1022.45 1021.94 1021.62 1020.96 1020.16 1019.03 1019.19 1019.15 1019.00 1019.05 1018.78 1018.74 1018.62 1018.52 1018.32 1018.13 1017.86 1017.55 1017.40 1016.94 1016.37 1016.01 1015.70 1015.48 1015.18 1014.72 1014.24 1014.12
1025.92 1026.09 1025.76 1025.75 1025.46 1025.11 1024.81 1024.62 1024.45 1024.23 1024.01 1023.80 1023.52 1023.10 1022.96 1022.76 1022.74 1022.54 1022.27 1021.57 1020.46 1019.69 1019.42 1018.79 1018.19 1018.26 1018.17 1018.11 1018.18 1018.04 1017.73 1017.65 1017.44 1017.19 1016.97 1016.58 1016.01 1015.54 1015.31 1014.91 1014.46 1014.28 1013.87 1013.45
1026.59 1026.49 1026.52 1026.45 1025.73 1025.15 1025.05 1025.06 1024.77 1024.40 1024.47 1024.13 1023.79 1023.38 1023.60 1023.29 1023.12 1022.68 1022.48 1021.55 1021.30 1020.08 1019.43 1018.58 1018.50 1018.61 1018.43 1018.20 1017.91 1017.65 1017.19 1017.00 1016.83 1016.56 1016.22 1015.76 1015.30 1014.80 1014.58 1014.34 1014.02 1013.74 1013.26 1012.76
1027.11 1027.04 1026.70 1026.33 1025.76 1025.47 1025.27 1025.20 1024.82 1024.53 1024.57 1024.47 1024.22 1024.14 1024.00 1023.46 1023.34 1023.01 1022.60 1021.89 1020.69 1019.69 1018.68 1018.40 1018.43 1018.27 1018.18 1018.00 1017.69 1017.31 1016.94 1016.53 1016.26 1015.87 1015.51 1015.14 1014.77 1014.41 1014.09 1013.62 1013.38 1013.19 1012.87 1012.47
1026.99 1027.09 1026.76 1026.25 1026.04 1025.28 1025.38 1025.27 1024.89 1024.63 1024.48 1024.53 1024.47 1024.17 1024.07 1023.57 1023.26 1022.82 1022.14 1021.45 1020.01 1018.95 1018.78 1018.32 1018.20 1018.12 1018.04 1017.74 1017.34 1016.78 1016.32 1015.95 1015.64 1015.26 1014.98 1014.58 1014.13 1013.75 1013.40 1013.02 1012.71 1012.55 1012.27 1011.88
1027.05 1026.75 1026.36 1026.21 1025.88 1025.39 1024.67 1024.53 1024.27 1024.34 1024.33 1024.31 1024.36 1024.16 1023.67 1023.94 1023.18 1022.33 1021.80 1020.68 1019.33 1018.47 1018.18 1017.99 1017.93 1017.78 1017.42 1017.06 1016.71 1016.31 1015.90 1015.49 1015.03 1014.64 1014.26 1013.89 1013.45 1013.26 1013.01 1012.61 1011.81 1011.54 1011.30 1010.88
Wind_Speed
20 20 20 21 17 13 3 1 1 4 4 3 2 3 2 3 5 3 1 0 1 3 6 4 4 3 4 5 3 2 2 2 3 0 1 1 2 2 5 3 3 1 4 9
19 21 22 22 18 13 1 2 1 2 2 3 3 2 2 1 3 2 1 1 1 1 3 1 1 2 2 5 3 1 4 3 3 4 4 2 6 6 4 4 2 8 4 6
17 19 21 21 20 8 1 1 2 3 5 2 3 3 1 2 2 3 3 2 1 0 2 1 2 4 2 4 3 4 3 2 7 6 3 3 5 8 12 10 5 6 11 7
16 17 20 22 21 9 1 4 3 1 3 4 3 1 2 1 2 1 2 3 7 5 2 2 4 3 4 2 3 1 4 6 5 10 10 9 13 13 14 18 15 11 5 13
15 17 20 22 24 7 5 2 0 1 2 1 1 1 2 3 2 5 4 5 3 9 6 6 5 8 5 4 5 5 3 3 2 6 6 9 12 18 20 24 24 25 23 30
11 14 17 20 23 10 4 1 1 3 2 1 1 1 1 2 1 4 0 5 2 6 12 7 1 2 1 6 9 11 6 4 3 5 2 7 12 17 23 14 14 23 18 23
9 10 12 15 17 10 2 2 1 1 1 3 3 1 2 4 4 3 1 3 3 1 4 7 6 4 2 6 7 6 7 5 3 5 5 10 2 1 4 19 16 22 20 22
9 9 9 9 12 11 4 1 0 1 3 3 4 5 5 4 3 5 4 6 1 6 2 2 4 3 3 5 2 7 5 7 4 5 6 12 14 5 7 11 9 24 25 22
6 8 9 7 6 7 3 2 2 1 1 3 2 2 3 2 3 2 2 2 1 1 2 3 5 6 3 5 4 1 6 4 8 4 8 10 3 2 3 2 11 12 20 19
5 7 9 9 4 4 1 1 1 1 3 1 4 4 2 1 1 2 1 2 3 0 4 6 6 7 2 6 7 8 6 8 17 14 11 9 10 4 5 5 10 1 9 8
5 6 7 8 2 1 0 1 1 2 2 5 6 4 4 2 2 2 3 2 2 2 6 5 6 6 6 4 3 8 12 12 8 9 9 13 9 7 9 3 2 2 5 7
14 13 10 9 11 4 3 2 2 1 3 4 3 9 10 13 11 5 5 2 3 4 4 4 3 5 3 5 7 3 7 11 6 12 8 2 9 10 13 2 5 5 7 6
10 10 11 13 13 14 5 2 3 1 2 5 3 7 5 5 10 10 6 4 7 5 4 2 3 9 3 7 11 10 6 7 6 7 10 17 15 13 13 10 13 11 9 11
11 12 12 11 11 11 8 2 0 1 2 4 4 2 4 1 4 10 14 6 2 2 2 5 7 8 6 10 14 17 11 5 12 18 18 14 19 16 17 16 14 15 13 13
10 11 11 11 12 13 7 3 1 1 3 4 4 8 13 10 8 10 8 10 8 6 5 6 6 4 5 8 10 17 12 18 14 17 21 19 22 19 9 11 12 11 10 8
10 11 10 10 10 12 3 2 1 4 2 4 4 2 4 2 1 7 9 8 7 4 4 5 6 8 4 6 12 14 12 15 19 20 22 19 17 8 8 9 4 6 6 7
11 10 11 10 11 2 3 3 3 7 1 3 4 3 0 3 1 0 1 4 4 4 4 5 6 5 4 4 13 16 13 15 16 14 9 14 11 4 7 7 6 6 4 4
13 14 13 13 12 7 4 0 3 1 1 2 4 3 2 5 2 2 1 1 2 3 3 2 3 4 6 8 14 15 16 14 16 12 11 8 8 8 8 6 5 6 5 5
14 14 11 2 1 2 1 9 9 1 2 3 2 2 2 3 0 2 2 3 4 3 5 5 3 5 2 9 14 15 19 13 10 10 11 11 11 9 9 8 9 8 9 8
11 4 2 1 1 11 8 1 2 3 3 2 2 1 4 3 2 2 2 2 3 4 2 3 4 3 3 10 6 4 5 3 3 8 10 5 3 1 3 5 6 9 10 10
2 3 2 3 8 2 1 2 2 2 4 3 2 3 3 1 3 2 1 3 3 4 2 3 2 3 1 7 5 5 6 8 7 9 10 12 10 8 7 10 9 11 12 11
1 3 4 2 2 1 2 1 3 3 1 3 1 2 2 2 1 2 2 4 2 3 3 2 1 4 12 7 8 9 11 11 12 12 13 13 11 11 10 11 10 10 13 13
2 2 2 2 1 2 2 2 2 3 2 1 2 3 1 1 1 3 2 3 4 4 2 3 5 4 8 8 8 10 10 12 14 15 14 14 13 13 11 14 12 13 13 14
1 1 3 2 2 3 2 2 3 2 3 3 3 2 2 1 2 1 3 2 2 3 3 5 2 2 7 8 7 8 11 11 11 12 12 13 13 12 13 12 13 13 14 14
1 2 3 5 4 2 2 2 3 2 2 1 2 3 2 2 3 3 3 3 4 5 5 1 3 2 4 5 7 8 9 9 9 11 11 11 12 11 12 13 13 12 12 13
1 3 4 4 3 3 1 2 4 3 2 1 1 2 2 4 3 4 6 2 5 5 2 3 3 4 6 8 8 10 11 11 12 12 13 13 14 14 13 13 13 12 13 14
3 5 4 6 5 6 5 3 3 2 2 1 2 3 5 0 3 4 4 6 4 4 7 5 7 8 10 10 10 11 11 12 13 13 13 14 14 11 11 13 17 13 13 12
Wind_Direction
7 7 9 7 360 353 37 96 313 19 314 43 40 79 115 154 168 209 242 205 121 194 172 164 169 182 205 175 183 115 83 53 233 242 108 316 246 253 223 252 184 294 325 270
6 4 2 4 6 10 347 35 326 68 301 54 60 117 128 211 156 198 188 182 293 163 187 253 224 191 89 167 174 132 159 194 255 183 178 183 230 194 191 128 138 208 216 256
5 2 1 0 360 357 44 101 11 21 51 27 98 151 166 183 202 162 154 118 61 322 224 230 194 198 165 182 179 137 177 271 266 277 28 99 208 203 205 200 201 187 225 264
4 3 2 359 1 351 266 10 92 124 8 48 34 17 135 149 244 285 234 173 209 181 223 253 247 164 155 184 198 151 235 238 218 258 261 244 256 246 206 210 218 217 236 228
2 0 2 2 360 359 79 6 326 149 91 150 176 102 201 232 188 178 225 239 203 194 208 202 198 173 207 211 167 192 200 260 232 271 234 227 252 246 237 233 237 243 258 275
7 3 3 6 5 4 74 78 134 285 80 102 247 198 181 235 213 184 120 239 208 218 246 234 207 184 178 174 177 186 185 209 228 270 348 299 264 245 212 215 222 226 238 241
10 6 7 11 18 36 68 45 301 258 197 225 215 191 229 238 215 249 99 181 207 61 108 106 112 135 156 191 186 197 173 188 208 272 298 248 291 209 224 215 233 217 239 250
1 357 7 14 24 28 57 92 302 14 277 264 240 222 228 256 235 232 226 197 236 158 170 259 266 220 231 195 220 207 228 189 236 260 238 306 291 197 189 195 256 225 229 246
355 357 356 3 20 47 92 57 324 3 282 216 314 260 190 243 230 232 185 55 78 120 210 193 227 239 248 210 190 110 187 265 226 168 250 248 71 142 167 208 268 234 208 230
1 356 350 343 335 46 64 118 181 292 277 195 183 233 291 129 169 251 216 165 168 296 198 219 221 243 211 226 203 174 177 211 220 229 256 270 265 164 148 241 314 43 205 212
15 1 358 352 13 85 25 27 211 285 248 275 204 203 201 190 228 253 99 207 184 162 205 224 223 239 212 251 178 185 184 179 196 210 236 272 166 127 210 331 13 169 173 184
22 19 18 12 360 254 184 269 149 165 244 290 235 255 262 238 234 242 196 292 168 216 223 233 265 231 209 247 256 186 238 219 236 211 219 352 209 242 224 246 245 214 216 222
21 24 18 9 5 6 308 264 148 145 255 261 278 245 255 228 235 220 219 208 223 209 225 234 251 246 189 248 245 253 231 221 242 279 224 240 253 250 249 242 236 220 229 229
9 7 5 360 360 355 356 317 317 175 292 251 269 79 258 205 183 207 223 250 72 52 208 237 249 247 211 255 267 260 271 199 248 259 269 281 270 264 260 253 243 241 241 228
342 346 351 347 350 340 319 254 267 311 258 292 271 328 282 276 219 212 219 222 228 223 229 227 240 240 252 246 266 260 249 250 249 261 272 278 284 288 288 250 242 235 235 235
332 344 339 328 332 337 309 236 118 60 4 285 281 302 271 43 103 214 211 213 219 228 225 239 241 232 221 240 261 274 277 262 250 260 268 279 289 341 359 319 359 47 53 30
322 318 315 324 330 304 256 307 334 298 84 278 290 259 248 359 8 314 193 211 220 231 240 230 252 251 250 246 260 297 289 290 290 294 295 265 269 322 30 33 20 11 353 300
321 316 305 303 303 284 261 200 10 35 204 221 257 263 287 10 342 294 278 226 207 227 253 255 242 262 229 254 293 330 356 342 23 34 42 35 34 29 39 15 9 341 318 288
325 318 306 327 180 214 258 308 301 219 248 258 238 259 300 355 272 247 256 230 237 232 235 240 233 251 281 4 29 38 45 50 39 37 38 35 34 11 353 330 307 291 320 309
323 328 318 283 42 315 309 145 200 192 181 232 253 315 279 343 358 307 291 234 247 249 240 313 218 99 156 82 71 66 61 77 59 63 54 35 29 294 264 268 288 293 292 295
6 355 294 336 323 319 240 261 237 152 208 200 221 234 267 188 251 276 266 290 273 252 48 279 302 78 163 224 186 208 197 218 220 215 245 266 271 286 307 312 307 293 296 296
261 304 292 293 302 272 275 270 317 250 351 348 310 33 246 289 283 270 251 259 249 285 359 291 2 221 244 244 237 225 228 236 240 234 253 267 274 271 285 287 285 285 289 291
26 261 273 315 254 305 201 324 22 345 285 277 312 309 260 297 253 264 289 277 255 317 237 224 223 200 252 255 256 269 266 258 262 270 270 274 279 275 275 281 286 291 290 289
111 139 299 248 264 232 147 151 240 266 233 276 295 300 317 306 265 232 241 270 283 254 253 256 48 338 287 298 276 271 280 292 291 287 281 278 276 277 286 289 293 292 288 290
171 122 234 223 250 274 210 315 308 253 281 304 309 269 267 254 264 233 287 275 240 233 240 329 180 5 287 308 298 280 271 266 261 270 276 281 285 286 288 287 286 284 283 283
153 236 247 235 294 276 225 197 246 219 181 201 217 275 271 252 246 222 233 273 245 284 236 245 247 278 266 264 285 284 283 284 285 283 278 275 275 273 274 281 281 279 270 270
201 241 243 247 279 257 270 206 234 163 158 233 136 234 228 188 248 252 202 225 262 304 307 294 280 277 285 279 279 279 277 274 275 279 280 274 276 285 279 277 280 276 268 260